Location: ???????????
(54.6970°N, 39.1477°E)
Time: 07:22:59
(UTC+00:00)

SL-16 R/B - Pass Details

Date: 19 May 2025
Orbit: 842 x 846 km, 71.0° (Epoch: 15 June)

Event Time Altitude Azimuth Distance (km) Brightness Sun altitude
Rises 22:33:36 0° 324° (NW) 3,412 5.9 -13.7°
Reaches altitude 10° 22:36:19 10° 335° (NNW) 2,474 5.3 -13.6°
Maximum altitude 22:41:24 32° 38° (NE) 1,405 4.1 -13.3°
Drops below altitude 10° 22:46:27 10° 101° (ESE) 2,463 4.7 -13.1°
Sets 22:49:09 0° 111° (ESE) 3,395 5.4 -12.9°
